Time,TemperatureF,DewpointF,PressureIn,WindDirection,WindDirectionDegrees,WindSpeedMPH,WindSpeedGustMPH,Humidity,HourlyPrecipIn,Conditions,Clouds,dailyrainin,SoftwareType,DateUTC
2013-04-20 00:06:00,49.0,44.4,30.20,NW,315,7.0,25.0,84,0.00,,,-99.99,Weather View 32 v60,2013-04-20 07:06:00,
2013-04-20 00:11:00,49.0,44.7,30.20,NW,315,9.0,25.0,85,0.00,,,-99.99,Weather View 32 v60,2013-04-20 07:11:00,
2013-04-20 00:16:00,49.0,45.0,30.20,NW,315,11.0,25.0,86,0.00,,,-99.99,Weather View 32 v60,2013-04-20 07:16:00,
2013-04-20 00:26:00,48.0,44.9,30.20,NW,315,9.0,25.0,89,0.00,,,-99.99,Weather View 32 v60,2013-04-20 07:26:00,
2013-04-20 00:31:00,48.0,45.2,30.20,NW,315,7.0,25.0,90,0.00,,,-99.99,Weather View 32 v60,2013-04-20 07:31:00,
2013-04-20 00:36:00,48.0,45.2,30.20,NW,315,8.0,23.0,90,0.00,,,-99.99,Weather View 32 v60,2013-04-20 07:36:00,
2013-04-20 00:41:00,48.0,45.2,30.20,NW,315,6.0,21.0,90,0.00,,,-99.99,Weather View 32 v60,2013-04-20 07:41:00,
2013-04-20 00:46:00,48.0,45.2,30.20,NW,315,5.0,21.0,90,0.00,,,-99.99,Weather View 32 v60,2013-04-20 07:46:00,
2013-04-20 00:56:00,48.0,44.6,30.20,NW,315,7.0,21.0,88,0.00,,,-99.99,Weather View 32 v60,2013-04-20 07:56:00,
2013-04-20 01:01:00,48.0,44.6,30.20,West,270,4.0,21.0,88,0.00,,,-99.99,Weather View 32 v60,2013-04-20 08:01:00,
2013-04-20 01:06:00,48.0,44.6,30.20,North,360,4.0,21.0,88,0.00,,,-99.99,Weather View 32 v60,2013-04-20 08:06:00,
2013-04-20 01:16:00,48.0,44.3,30.20,NW,315,6.0,19.0,87,0.00,,,-99.99,Weather View 32 v60,2013-04-20 08:16:00,
2013-04-20 01:21:00,48.0,44.0,30.19,NW,315,15.0,19.0,86,0.00,,,-99.99,Weather View 32 v60,2013-04-20 08:21:00,
2013-04-20 01:26:00,48.0,44.0,30.20,NW,315,9.0,19.0,86,0.00,,,-99.99,Weather View 32 v60,2013-04-20 08:26:00,
2013-04-20 01:36:00,48.0,43.4,30.20,NW,315,12.0,19.0,84,0.00,,,-99.99,Weather View 32 v60,2013-04-20 08:36:00,
2013-04-20 01:46:00,48.0,43.1,30.20,NW,315,10.0,19.0,83,0.00,,,-99.99,Weather View 32 v60,2013-04-20 08:46:00,
2013-04-20 01:51:00,48.0,43.4,30.20,NNW,337,3.0,19.0,84,0.00,,,-99.99,Weather View 32 v60,2013-04-20 08:51:00,
2013-04-20 01:56:00,48.0,42.8,30.20,NW,315,10.0,19.0,82,0.00,,,-99.99,Weather View 32 v60,2013-04-20 08:56:00,
2013-04-20 02:06:00,48.0,42.1,30.19,NW,315,20.0,23.0,80,0.00,,,-99.99,Weather View 32 v60,2013-04-20 09:06:00,
2013-04-20 02:11:00,48.0,42.1,30.20,NW,315,5.0,23.0,80,0.00,,,-99.99,Weather View 32 v60,2013-04-20 09:11:00,
2013-04-20 02:16:00,48.0,42.4,30.20,NW,315,8.0,23.0,81,0.00,,,-99.99,Weather View 32 v60,2013-04-20 09:16:00,
2013-04-20 02:26:00,48.0,42.4,30.20,WNW,292,6.0,23.0,81,0.00,,,-99.99,Weather View 32 v60,2013-04-20 09:26:00,
2013-04-20 02:31:00,48.0,42.4,30.18,NW,315,20.0,23.0,81,0.00,,,-99.99,Weather View 32 v60,2013-04-20 09:31:00,
2013-04-20 02:36:00,48.0,42.4,30.19,NW,315,12.0,23.0,81,0.00,,,-99.99,Weather View 32 v60,2013-04-20 09:36:00,
2013-04-20 02:41:00,48.0,42.4,30.19,West,270,14.0,23.0,81,0.00,,,-99.99,Weather View 32 v60,2013-04-20 09:41:00,
2013-04-20 02:46:00,48.0,43.1,30.19,NW,315,13.0,23.0,83,0.00,,,-99.99,Weather View 32 v60,2013-04-20 09:46:00,
2013-04-20 02:51:00,48.0,42.8,30.19,NW,315,15.0,23.0,82,0.00,,,-99.99,Weather View 32 v60,2013-04-20 09:51:00,
2013-04-20 03:01:00,48.0,42.8,30.19,NW,315,11.0,23.0,82,0.00,,,-99.99,Weather View 32 v60,2013-04-20 10:01:00,
2013-04-20 03:06:00,48.0,42.1,30.19,WNW,292,16.0,23.0,80,0.00,,,-99.99,Weather View 32 v60,2013-04-20 10:06:00,
2013-04-20 03:11:00,48.0,41.5,30.19,NW,315,17.0,23.0,78,0.00,,,-99.99,Weather View 32 v60,2013-04-20 10:11:00,
2013-04-20 03:16:00,48.0,41.8,30.19,NW,315,8.0,23.0,79,0.00,,,-99.99,Weather View 32 v60,2013-04-20 10:16:00,
2013-04-20 03:26:00,48.0,42.4,30.19,NW,315,18.0,21.0,81,0.00,,,-99.99,Weather View 32 v60,2013-04-20 10:26:00,
2013-04-20 03:31:00,48.0,42.1,30.19,WNW,292,12.0,21.0,80,0.00,,,-99.99,Weather View 32 v60,2013-04-20 10:31:00,
2013-04-20 03:36:00,48.0,42.1,30.19,NW,315,9.0,21.0,80,0.00,,,-99.99,Weather View 32 v60,2013-04-20 10:36:00,
2013-04-20 03:41:00,48.0,42.4,30.19,NW,315,9.0,21.0,81,0.00,,,-99.99,Weather View 32 v60,2013-04-20 10:41:00,
2013-04-20 03:46:00,48.0,42.8,30.19,NW,315,14.0,21.0,82,0.00,,,-99.99,Weather View 32 v60,2013-04-20 10:46:00,
2013-04-20 03:56:00,48.0,43.1,30.19,NW,315,14.0,22.0,83,0.00,,,-99.99,Weather View 32 v60,2013-04-20 10:56:00,
2013-04-20 04:01:00,48.0,43.1,30.20,NW,315,10.0,22.0,83,0.00,,,-99.99,Weather View 32 v60,2013-04-20 11:01:00,
2013-04-20 04:06:00,48.0,42.8,30.19,WNW,292,8.0,22.0,82,0.00,,,-99.99,Weather View 32 v60,2013-04-20 11:06:00,
2013-04-20 04:11:00,48.0,43.4,30.19,WNW,292,15.0,22.0,84,0.00,,,-99.99,Weather View 32 v60,2013-04-20 11:11:00,
2013-04-20 04:21:00,47.0,41.5,30.19,WNW,292,12.0,22.0,81,0.00,,,-99.99,Weather View 32 v60,2013-04-20 11:21:00,
2013-04-20 04:26:00,48.0,43.1,30.19,NW,315,16.0,22.0,83,0.00,,,-99.99,Weather View 32 v60,2013-04-20 11:26:00,
2013-04-20 04:31:00,48.0,42.8,30.19,NW,315,14.0,22.0,82,0.00,,,-99.99,Weather View 32 v60,2013-04-20 11:31:00,
2013-04-20 04:41:00,48.0,43.4,30.20,NW,315,8.0,22.0,84,0.00,,,-99.99,Weather View 32 v60,2013-04-20 11:41:00,
2013-04-20 04:51:00,47.0,41.8,30.20,NW,315,8.0,23.0,82,0.00,,,-99.99,Weather View 32 v60,2013-04-20 11:51:00,
2013-04-20 04:56:00,47.0,41.5,30.19,NW,315,14.0,24.0,81,0.00,,,-99.99,Weather View 32 v60,2013-04-20 11:56:00,
2013-04-20 05:01:00,47.0,41.5,30.20,NW,315,10.0,24.0,81,0.00,,,-99.99,Weather View 32 v60,2013-04-20 12:01:00,
2013-04-20 05:06:00,47.0,41.5,30.20,NW,315,10.0,24.0,81,0.00,,,-99.99,Weather View 32 v60,2013-04-20 12:06:00,
2013-04-20 05:16:00,48.0,42.1,30.20,NW,315,14.0,24.0,80,0.00,,,-99.99,Weather View 32 v60,2013-04-20 12:16:00,
2013-04-20 05:21:00,48.0,42.1,30.20,NW,315,13.0,24.0,80,0.00,,,-99.99,Weather View 32 v60,2013-04-20 12:21:00,
2013-04-20 05:26:00,48.0,42.1,30.20,WNW,292,8.0,24.0,80,0.00,,,-99.99,Weather View 32 v60,2013-04-20 12:26:00,
2013-04-20 05:31:00,48.0,42.1,30.20,West,270,6.0,24.0,80,0.00,,,-99.99,Weather View 32 v60,2013-04-20 12:31:00,
2013-04-20 05:41:00,48.0,42.1,30.20,NW,315,10.0,24.0,80,0.00,,,-99.99,Weather View 32 v60,2013-04-20 12:41:00,
2013-04-20 05:46:00,48.0,42.4,30.20,NW,315,12.0,24.0,81,0.00,,,-99.99,Weather View 32 v60,2013-04-20 12:46:00,
2013-04-20 05:51:00,48.0,42.1,30.21,NW,315,6.0,24.0,80,0.00,,,-99.99,Weather View 32 v60,2013-04-20 12:51:00,
2013-04-20 05:56:00,48.0,42.1,30.20,WNW,292,13.0,24.0,80,0.00,,,-99.99,Weather View 32 v60,2013-04-20 12:56:00,
2013-04-20 06:01:00,47.0,40.8,30.20,WNW,292,14.0,20.0,79,0.00,,,-99.99,Weather View 32 v60,2013-04-20 13:01:00,
2013-04-20 06:11:00,48.0,41.5,30.21,West,270,7.0,20.0,78,0.00,,,-99.99,Weather View 32 v60,2013-04-20 13:11:00,
2013-04-20 06:16:00,48.0,41.5,30.20,West,270,13.0,20.0,78,0.00,,,-99.99,Weather View 32 v60,2013-04-20 13:16:00,
2013-04-20 06:21:00,47.0,39.8,30.20,WNW,292,13.0,20.0,76,0.00,,,-99.99,Weather View 32 v60,2013-04-20 13:21:00,
2013-04-20 06:31:00,47.0,39.8,30.21,WNW,292,10.0,20.0,76,0.00,,,-99.99,Weather View 32 v60,2013-04-20 13:31:00,
2013-04-20 06:36:00,47.0,39.5,30.21,WNW,292,8.0,20.0,75,0.00,,,-99.99,Weather View 32 v60,2013-04-20 13:36:00,
2013-04-20 06:41:00,47.0,39.1,30.21,WNW,292,10.0,20.0,74,0.00,,,-99.99,Weather View 32 v60,2013-04-20 13:41:00,
2013-04-20 06:51:00,47.0,39.1,30.22,West,270,7.0,20.0,74,0.00,,,-99.99,Weather View 32 v60,2013-04-20 13:51:00,
2013-04-20 06:56:00,47.0,39.1,30.21,NW,315,17.0,20.0,74,0.00,,,-99.99,Weather View 32 v60,2013-04-20 13:56:00,
2013-04-20 07:01:00,47.0,39.1,30.22,West,270,7.0,20.0,74,0.00,,,-99.99,Weather View 32 v60,2013-04-20 14:01:00,
2013-04-20 07:06:00,47.0,39.1,30.22,NW,315,3.0,20.0,74,0.00,,,-99.99,Weather View 32 v60,2013-04-20 14:06:00,
2013-04-20 07:11:00,47.0,38.8,30.21,NW,315,9.0,20.0,73,0.00,,,-99.99,Weather View 32 v60,2013-04-20 14:11:00,
2013-04-20 07:21:00,48.0,39.4,30.22,West,270,4.0,20.0,72,0.00,,,-99.99,Weather View 32 v60,2013-04-20 14:21:00,
2013-04-20 07:26:00,48.0,38.3,30.22,WNW,292,1.0,20.0,69,0.00,,,-99.99,Weather View 32 v60,2013-04-20 14:26:00,
2013-04-20 07:36:00,49.0,38.5,30.22,WNW,292,11.0,25.0,67,0.00,,,-99.99,Weather View 32 v60,2013-04-20 14:36:00,
2013-04-20 07:41:00,49.0,38.5,30.22,NW,315,11.0,25.0,67,0.00,,,-99.99,Weather View 32 v60,2013-04-20 14:41:00,
2013-04-20 07:46:00,49.0,38.5,30.22,NW,315,17.0,25.0,67,0.00,,,-99.99,Weather View 32 v60,2013-04-20 14:46:00,
2013-04-20 07:56:00,50.0,38.3,30.23,West,270,13.0,25.0,64,0.00,,,-99.99,Weather View 32 v60,2013-04-20 14:56:00,
2013-04-20 08:01:00,50.0,38.7,30.23,NW,315,10.0,25.0,65,0.00,,,-99.99,Weather View 32 v60,2013-04-20 15:01:00,
2013-04-20 08:06:00,50.0,38.7,30.23,NW,315,10.0,25.0,65,0.00,,,-99.99,Weather View 32 v60,2013-04-20 15:06:00,
2013-04-20 08:11:00,50.0,38.3,30.24,WNW,292,10.0,25.0,64,0.00,,,-99.99,Weather View 32 v60,2013-04-20 15:11:00,
2013-04-20 08:16:00,50.0,37.9,30.23,NW,315,11.0,25.0,63,0.00,,,-99.99,Weather View 32 v60,2013-04-20 15:16:00,
2013-04-20 08:26:00,50.0,37.9,30.24,NW,315,10.0,25.0,63,0.00,,,-99.99,Weather View 32 v60,2013-04-20 15:26:00,
2013-04-20 08:31:00,51.0,38.4,30.24,NW,315,11.0,25.0,62,0.00,,,-99.99,Weather View 32 v60,2013-04-20 15:31:00,
2013-04-20 08:41:00,51.0,38.8,30.24,NW,315,12.0,26.0,63,0.00,,,-99.99,Weather View 32 v60,2013-04-20 15:41:00,
2013-04-20 08:46:00,51.0,38.4,30.24,WNW,292,11.0,27.0,62,0.00,,,-99.99,Weather View 32 v60,2013-04-20 15:46:00,
2013-04-20 08:56:00,51.0,38.0,30.24,NW,315,11.0,27.0,61,0.00,,,-99.99,Weather View 32 v60,2013-04-20 15:56:00,
2013-04-20 09:01:00,51.0,38.0,30.24,West,270,22.0,28.0,61,0.00,,,-99.99,Weather View 32 v60,2013-04-20 16:01:00,
2013-04-20 09:06:00,51.0,38.4,30.24,NW,315,14.0,28.0,62,0.00,,,-99.99,Weather View 32 v60,2013-04-20 16:06:00,
2013-04-20 09:11:00,51.0,38.0,30.24,West,270,16.0,28.0,61,0.00,,,-99.99,Weather View 32 v60,2013-04-20 16:11:00,
2013-04-20 09:21:00,51.0,38.4,30.24,NW,315,11.0,28.0,62,0.00,,,-99.99,Weather View 32 v60,2013-04-20 16:21:00,
2013-04-20 09:26:00,51.0,37.6,30.24,NW,315,10.0,28.0,60,0.00,,,-99.99,Weather View 32 v60,2013-04-20 16:26:00,
2013-04-20 09:31:00,51.0,37.6,30.24,WNW,292,18.0,28.0,60,0.00,,,-99.99,Weather View 32 v60,2013-04-20 16:31:00,
2013-04-20 09:41:00,52.0,39.4,30.25,NW,315,12.0,28.0,62,0.00,,,-99.99,Weather View 32 v60,2013-04-20 16:41:00,
2013-04-20 09:46:00,52.0,39.4,30.24,WNW,292,20.0,28.0,62,0.00,,,-99.99,Weather View 32 v60,2013-04-20 16:46:00,
2013-04-20 09:56:00,52.0,39.4,30.25,WNW,292,13.0,28.0,62,0.00,,,-99.99,Weather View 32 v60,2013-04-20 16:56:00,
2013-04-20 10:01:00,52.0,39.4,30.25,NW,315,14.0,27.0,62,0.00,,,-99.99,Weather View 32 v60,2013-04-20 17:01:00,
2013-04-20 10:06:00,52.0,39.4,30.24,WNW,292,21.0,27.0,62,0.00,,,-99.99,Weather View 32 v60,2013-04-20 17:06:00,
2013-04-20 10:11:00,52.0,39.8,30.24,WNW,292,23.0,27.0,63,0.00,,,-99.99,Weather View 32 v60,2013-04-20 17:11:00,
2013-04-20 10:16:00,52.0,39.4,30.24,NW,315,25.0,27.0,62,0.00,,,-99.99,Weather View 32 v60,2013-04-20 17:16:00,
2013-04-20 10:26:00,52.0,38.9,30.25,NW,315,14.0,27.0,61,0.00,,,-99.99,Weather View 32 v60,2013-04-20 17:26:00,
2013-04-20 10:31:00,52.0,38.9,30.26,NW,315,13.0,27.0,61,0.00,,,-99.99,Weather View 32 v60,2013-04-20 17:31:00,
2013-04-20 10:41:00,53.0,39.0,30.25,NW,315,13.0,27.0,59,0.00,,,-99.99,Weather View 32 v60,2013-04-20 17:41:00,
2013-04-20 10:46:00,53.0,39.9,30.26,NW,315,14.0,27.0,61,0.00,,,-99.99,Weather View 32 v60,2013-04-20 17:46:00,
2013-04-20 10:51:00,53.0,39.5,30.26,NW,315,11.0,27.0,60,0.00,,,-99.99,Weather View 32 v60,2013-04-20 17:51:00,
2013-04-20 11:01:00,53.0,39.0,30.25,NW,315,14.0,27.0,59,0.00,,,-99.99,Weather View 32 v60,2013-04-20 18:01:00,
2013-04-20 11:06:00,53.0,39.9,30.26,NW,315,12.0,27.0,61,0.00,,,-99.99,Weather View 32 v60,2013-04-20 18:06:00,
2013-04-20 11:11:00,53.0,39.5,30.26,WNW,292,10.0,27.0,60,0.00,,,-99.99,Weather View 32 v60,2013-04-20 18:11:00,
2013-04-20 11:16:00,53.0,39.0,30.25,NW,315,23.0,27.0,59,0.00,,,-99.99,Weather View 32 v60,2013-04-20 18:16:00,
2013-04-20 11:21:00,53.0,38.6,30.25,WNW,292,16.0,27.0,58,0.00,,,-99.99,Weather View 32 v60,2013-04-20 18:21:00,
2013-04-20 11:31:00,53.0,39.5,30.25,NW,315,19.0,28.0,60,0.00,,,-99.99,Weather View 32 v60,2013-04-20 18:31:00,
2013-04-20 11:36:00,53.0,38.6,30.25,WNW,292,20.0,28.0,58,0.00,,,-99.99,Weather View 32 v60,2013-04-20 18:36:00,
2013-04-20 11:41:00,54.0,39.5,30.26,NW,315,16.0,28.0,58,0.00,,,-99.99,Weather View 32 v60,2013-04-20 18:41:00,
2013-04-20 11:51:00,54.0,39.1,30.25,NW,315,26.0,29.0,57,0.00,,,-99.99,Weather View 32 v60,2013-04-20 18:51:00,
2013-04-20 11:56:00,54.0,39.5,30.26,NW,315,14.0,29.0,58,0.00,,,-99.99,Weather View 32 v60,2013-04-20 18:56:00,
2013-04-20 12:06:00,54.0,39.1,30.25,NW,315,19.0,34.0,57,0.00,,,-99.99,Weather View 32 v60,2013-04-20 19:06:00,
2013-04-20 12:11:00,54.0,40.0,30.26,NW,315,18.0,34.0,59,0.00,,,-99.99,Weather View 32 v60,2013-04-20 19:11:00,
2013-04-20 12:16:00,54.0,39.5,30.26,NW,315,15.0,34.0,58,0.00,,,-99.99,Weather View 32 v60,2013-04-20 19:16:00,
2013-04-20 12:26:00,54.0,39.5,30.25,NW,315,22.0,34.0,58,0.00,,,-99.99,Weather View 32 v60,2013-04-20 19:26:00,
2013-04-20 12:31:00,54.0,39.5,30.26,NW,315,21.0,34.0,58,0.00,,,-99.99,Weather View 32 v60,2013-04-20 19:31:00,
2013-04-20 12:36:00,53.0,39.0,30.26,West,270,23.0,34.0,59,0.00,,,-99.99,Weather View 32 v60,2013-04-20 19:36:00,
2013-04-20 12:46:00,52.0,39.8,30.24,NW,315,26.0,34.0,63,0.00,,,-99.99,Weather View 32 v60,2013-04-20 19:46:00,
2013-04-20 12:51:00,52.0,39.8,30.26,WNW,292,16.0,34.0,63,0.00,,,-99.99,Weather View 32 v60,2013-04-20 19:51:00,
2013-04-20 12:56:00,52.0,40.2,30.25,NW,315,19.0,34.0,64,0.00,,,-99.99,Weather View 32 v60,2013-04-20 19:56:00,
2013-04-20 13:06:00,52.0,39.4,30.24,NW,315,15.0,30.0,62,0.00,,,-99.99,Weather View 32 v60,2013-04-20 20:06:00,
2013-04-20 13:11:00,52.0,38.5,30.25,NW,315,12.0,30.0,60,0.00,,,-99.99,Weather View 32 v60,2013-04-20 20:11:00,
2013-04-20 13:16:00,53.0,39.5,30.25,NW,315,16.0,30.0,60,0.00,,,-99.99,Weather View 32 v60,2013-04-20 20:16:00,
2013-04-20 13:21:00,54.0,39.1,30.25,WNW,292,15.0,30.0,57,0.00,,,-99.99,Weather View 32 v60,2013-04-20 20:21:00,
2013-04-20 13:31:00,54.0,39.5,30.24,NW,315,11.0,30.0,58,0.00,,,-99.99,Weather View 32 v60,2013-04-20 20:31:00,
2013-04-20 13:36:00,54.0,39.1,30.23,NW,315,27.0,30.0,57,0.00,,,-99.99,Weather View 32 v60,2013-04-20 20:36:00,
2013-04-20 13:41:00,54.0,40.0,30.24,NW,315,18.0,30.0,59,0.00,,,-99.99,Weather View 32 v60,2013-04-20 20:41:00,
2013-04-20 13:51:00,54.0,40.8,30.23,NW,315,21.0,29.0,61,0.00,,,-99.99,Weather View 32 v60,2013-04-20 20:51:00,
2013-04-20 13:56:00,54.0,40.4,30.24,NW,315,18.0,29.0,60,0.00,,,-99.99,Weather View 32 v60,2013-04-20 20:56:00,
2013-04-20 14:01:00,54.0,42.1,30.24,WNW,292,11.0,29.0,64,0.00,,,-99.99,Weather View 32 v60,2013-04-20 21:01:00,
2013-04-20 14:11:00,55.0,41.8,30.24,NW,315,15.0,30.0,61,0.00,,,-99.99,Weather View 32 v60,2013-04-20 21:11:00,
2013-04-20 14:16:00,55.0,41.3,30.24,WNW,292,16.0,30.0,60,0.00,,,-99.99,Weather View 32 v60,2013-04-20 21:16:00,
2013-04-20 14:21:00,55.0,41.8,30.24,NW,315,15.0,30.0,61,0.00,,,-99.99,Weather View 32 v60,2013-04-20 21:21:00,
2013-04-20 14:31:00,55.0,42.6,30.24,West,270,14.0,30.0,63,0.00,,,-99.99,Weather View 32 v60,2013-04-20 21:31:00,
2013-04-20 14:36:00,55.0,41.3,30.23,WNW,292,17.0,30.0,60,0.00,,,-99.99,Weather View 32 v60,2013-04-20 21:36:00,
2013-04-20 14:41:00,55.0,40.5,30.24,NW,315,18.0,30.0,58,0.00,,,-99.99,Weather View 32 v60,2013-04-20 21:41:00,
2013-04-20 14:51:00,55.0,40.5,30.24,West,270,14.0,30.0,58,0.00,,,-99.99,Weather View 32 v60,2013-04-20 21:51:00,
2013-04-20 14:56:00,56.0,41.8,30.24,WNW,292,11.0,30.0,59,0.00,,,-99.99,Weather View 32 v60,2013-04-20 21:56:00,
2013-04-20 15:01:00,56.0,41.4,30.23,NW,315,22.0,30.0,58,0.00,,,-99.99,Weather View 32 v60,2013-04-20 22:01:00,
2013-04-20 15:06:00,56.0,41.8,30.24,NW,315,13.0,30.0,59,0.00,,,-99.99,Weather View 32 v60,2013-04-20 22:06:00,
2013-04-20 15:11:00,56.0,40.5,30.23,NW,315,17.0,30.0,56,0.00,,,-99.99,Weather View 32 v60,2013-04-20 22:11:00,
2013-04-20 15:21:00,56.0,41.8,30.23,NW,315,16.0,30.0,59,0.00,,,-99.99,Weather View 32 v60,2013-04-20 22:21:00,
2013-04-20 15:26:00,56.0,41.4,30.23,WNW,292,18.0,30.0,58,0.00,,,-99.99,Weather View 32 v60,2013-04-20 22:26:00,
2013-04-20 15:36:00,56.0,41.4,30.22,WNW,292,20.0,31.0,58,0.00,,,-99.99,Weather View 32 v60,2013-04-20 22:36:00,
2013-04-20 15:41:00,56.0,41.8,30.23,NW,315,13.0,31.0,59,0.00,,,-99.99,Weather View 32 v60,2013-04-20 22:41:00,
2013-04-20 15:46:00,56.0,41.8,30.23,NW,315,18.0,31.0,59,0.00,,,-99.99,Weather View 32 v60,2013-04-20 22:46:00,
2013-04-20 15:51:00,56.0,40.5,30.23,NW,315,16.0,31.0,56,0.00,,,-99.99,Weather View 32 v60,2013-04-20 22:51:00,
2013-04-20 15:58:00,56.0,40.5,30.23,WNW,292,19.0,31.0,56,0.00,,,-99.99,Weather View 32 v60,2013-04-20 22:58:00,
2013-04-20 16:06:00,56.0,40.0,30.22,NW,315,26.0,31.0,55,0.00,,,-99.99,Weather View 32 v60,2013-04-20 23:06:00,
2013-04-20 16:11:00,56.0,41.4,30.23,West,270,18.0,32.0,58,0.00,,,-99.99,Weather View 32 v60,2013-04-20 23:11:00,
2013-04-20 16:16:00,56.0,39.6,30.22,NW,315,20.0,32.0,54,0.00,,,-99.99,Weather View 32 v60,2013-04-20 23:16:00,
2013-04-20 16:26:00,56.0,40.5,30.22,NW,315,20.0,32.0,56,0.00,,,-99.99,Weather View 32 v60,2013-04-20 23:26:00,
2013-04-20 16:31:00,56.0,40.5,30.22,WNW,292,19.0,32.0,56,0.00,,,-99.99,Weather View 32 v60,2013-04-20 23:31:00,
2013-04-20 16:36:00,56.0,40.5,30.22,West,270,20.0,32.0,56,0.00,,,-99.99,Weather View 32 v60,2013-04-20 23:36:00,
2013-04-20 16:46:00,56.0,40.0,30.21,WNW,292,16.0,32.0,55,0.00,,,-99.99,Weather View 32 v60,2013-04-20 23:46:00,
2013-04-20 16:51:00,56.0,41.4,30.21,NW,315,24.0,32.0,58,0.00,,,-99.99,Weather View 32 v60,2013-04-20 23:51:00,
2013-04-20 16:56:00,56.0,40.5,30.21,WNW,292,16.0,32.0,56,0.00,,,-99.99,Weather View 32 v60,2013-04-20 23:56:00,
2013-04-20 17:01:00,56.0,40.5,30.21,NW,315,15.0,32.0,56,0.00,,,-99.99,Weather View 32 v60,2013-04-21 00:01:00,
2013-04-20 17:11:00,56.0,40.5,30.20,NW,315,25.0,31.0,56,0.00,,,-99.99,Weather View 32 v60,2013-04-21 00:11:00,
2013-04-20 17:16:00,56.0,40.5,30.20,WNW,292,19.0,32.0,56,0.00,,,-99.99,Weather View 32 v60,2013-04-21 00:16:00,
2013-04-20 17:21:00,56.0,40.9,30.20,NW,315,19.0,32.0,57,0.00,,,-99.99,Weather View 32 v60,2013-04-21 00:21:00,
2013-04-20 17:31:00,56.0,41.8,30.21,NW,315,14.0,32.0,59,0.00,,,-99.99,Weather View 32 v60,2013-04-21 00:31:00,
2013-04-20 17:36:00,55.0,39.6,30.20,NW,315,15.0,32.0,56,0.00,,,-99.99,Weather View 32 v60,2013-04-21 00:36:00,
2013-04-20 17:46:00,55.0,40.0,30.20,NW,315,16.0,32.0,57,0.00,,,-99.99,Weather View 32 v60,2013-04-21 00:46:00,
2013-04-20 17:51:00,55.0,40.9,30.20,WNW,292,12.0,32.0,59,0.00,,,-99.99,Weather View 32 v60,2013-04-21 00:51:00,
2013-04-20 17:56:00,54.0,40.4,30.20,NW,315,19.0,32.0,60,0.00,,,-99.99,Weather View 32 v60,2013-04-21 00:56:00,
2013-04-20 18:01:00,54.0,40.4,30.20,NW,315,25.0,32.0,60,0.00,,,-99.99,Weather View 32 v60,2013-04-21 01:01:00,
2013-04-20 18:11:00,53.0,39.9,30.20,NW,315,18.0,32.0,61,0.00,,,-99.99,Weather View 32 v60,2013-04-21 01:11:00,
2013-04-20 18:16:00,53.0,39.9,30.20,NW,315,21.0,31.0,61,0.00,,,-99.99,Weather View 32 v60,2013-04-21 01:16:00,
2013-04-20 18:21:00,53.0,40.3,30.20,WNW,292,17.0,31.0,62,0.00,,,-99.99,Weather View 32 v60,2013-04-21 01:21:00,
2013-04-20 18:26:00,53.0,39.5,30.20,NW,315,24.0,31.0,60,0.00,,,-99.99,Weather View 32 v60,2013-04-21 01:26:00,
2013-04-20 18:31:00,53.0,39.9,30.20,WNW,292,19.0,31.0,61,0.00,,,-99.99,Weather View 32 v60,2013-04-21 01:31:00,
2013-04-20 18:36:00,53.0,39.9,30.20,NW,315,13.0,31.0,61,0.00,,,-99.99,Weather View 32 v60,2013-04-21 01:36:00,
2013-04-20 18:46:00,52.0,38.9,30.20,NW,315,16.0,31.0,61,0.00,,,-99.99,Weather View 32 v60,2013-04-21 01:46:00,
2013-04-20 18:51:00,53.0,39.5,30.19,NW,315,19.0,31.0,60,0.00,,,-99.99,Weather View 32 v60,2013-04-21 01:51:00,
2013-04-20 18:56:00,53.0,39.0,30.19,NW,315,14.0,31.0,59,0.00,,,-99.99,Weather View 32 v60,2013-04-21 01:56:00,
2013-04-20 19:06:00,53.0,39.9,30.19,NW,315,18.0,31.0,61,0.00,,,-99.99,Weather View 32 v60,2013-04-21 02:06:00,
2013-04-20 19:16:00,53.0,39.9,30.20,West,270,10.0,30.0,61,0.00,,,-99.99,Weather View 32 v60,2013-04-21 02:16:00,
2013-04-20 19:21:00,53.0,40.7,30.20,NW,315,11.0,29.0,63,0.00,,,-99.99,Weather View 32 v60,2013-04-21 02:21:00,
2013-04-20 19:26:00,52.0,39.4,30.19,NW,315,17.0,29.0,62,0.00,,,-99.99,Weather View 32 v60,2013-04-21 02:26:00,
2013-04-20 19:36:00,52.0,39.8,30.20,WNW,292,10.0,29.0,63,0.00,,,-99.99,Weather View 32 v60,2013-04-21 02:36:00,
2013-04-20 19:41:00,52.0,40.6,30.20,WNW,292,14.0,28.0,65,0.00,,,-99.99,Weather View 32 v60,2013-04-21 02:41:00,
2013-04-20 19:51:00,52.0,40.2,30.20,West,270,10.0,28.0,64,0.00,,,-99.99,Weather View 32 v60,2013-04-21 02:51:00,
2013-04-20 19:56:00,51.0,38.8,30.20,West,270,10.0,27.0,63,0.00,,,-99.99,Weather View 32 v60,2013-04-21 02:56:00,
2013-04-20 20:01:00,51.0,38.8,30.21,WNW,292,7.0,27.0,63,0.00,,,-99.99,Weather View 32 v60,2013-04-21 03:01:00,
2013-04-20 20:06:00,51.0,38.8,30.20,West,270,10.0,27.0,63,0.00,,,-99.99,Weather View 32 v60,2013-04-21 03:06:00,
2013-04-20 20:11:00,51.0,39.6,30.20,NW,315,9.0,23.0,65,0.00,,,-99.99,Weather View 32 v60,2013-04-21 03:11:00,
2013-04-20 20:21:00,51.0,39.6,30.20,West,270,12.0,23.0,65,0.00,,,-99.99,Weather View 32 v60,2013-04-21 03:21:00,
2013-04-20 20:26:00,51.0,39.2,30.20,WNW,292,10.0,25.0,64,0.00,,,-99.99,Weather View 32 v60,2013-04-21 03:26:00,
2013-04-20 20:36:00,51.0,39.6,30.20,NW,315,8.0,25.0,65,0.00,,,-99.99,Weather View 32 v60,2013-04-21 03:36:00,
2013-04-20 20:41:00,51.0,39.6,30.20,NW,315,19.0,25.0,65,0.00,,,-99.99,Weather View 32 v60,2013-04-21 03:41:00,
2013-04-20 20:51:00,51.0,39.6,30.20,WNW,292,13.0,25.0,65,0.00,,,-99.99,Weather View 32 v60,2013-04-21 03:51:00,
2013-04-20 20:56:00,51.0,39.2,30.20,NW,315,16.0,25.0,64,0.00,,,-99.99,Weather View 32 v60,2013-04-21 03:56:00,
2013-04-20 21:01:00,51.0,39.2,30.21,WNW,292,13.0,25.0,64,0.00,,,-99.99,Weather View 32 v60,2013-04-21 04:01:00,
2013-04-20 21:06:00,51.0,39.6,30.21,NW,315,16.0,25.0,65,0.00,,,-99.99,Weather View 32 v60,2013-04-21 04:06:00,
2013-04-20 21:11:00,51.0,39.6,30.21,NW,315,13.0,25.0,65,0.00,,,-99.99,Weather View 32 v60,2013-04-21 04:11:00,
2013-04-20 21:21:00,51.0,39.6,30.21,WNW,292,9.0,25.0,65,0.00,,,-99.99,Weather View 32 v60,2013-04-21 04:21:00,
2013-04-20 21:26:00,51.0,40.0,30.21,NW,315,15.0,24.0,66,0.00,,,-99.99,Weather View 32 v60,2013-04-21 04:26:00,
2013-04-20 21:31:00,51.0,40.0,30.21,NW,315,13.0,24.0,66,0.00,,,-99.99,Weather View 32 v60,2013-04-21 04:31:00,
2013-04-20 21:36:00,51.0,40.4,30.21,NW,315,12.0,24.0,67,0.00,,,-99.99,Weather View 32 v60,2013-04-21 04:36:00,
2013-04-20 21:41:00,51.0,40.4,30.21,NW,315,10.0,24.0,67,0.00,,,-99.99,Weather View 32 v60,2013-04-21 04:41:00,
2013-04-20 21:46:00,51.0,40.4,30.21,WNW,292,13.0,24.0,67,0.00,,,-99.99,Weather View 32 v60,2013-04-21 04:46:00,
2013-04-20 21:56:00,51.0,40.4,30.21,West,270,17.0,24.0,67,0.00,,,-99.99,Weather View 32 v60,2013-04-21 04:56:00,
2013-04-20 22:01:00,51.0,40.4,30.21,NW,315,10.0,24.0,67,0.00,,,-99.99,Weather View 32 v60,2013-04-21 05:01:00,
2013-04-20 22:06:00,51.0,40.8,30.21,NW,315,11.0,24.0,68,0.00,,,-99.99,Weather View 32 v60,2013-04-21 05:06:00,
2013-04-20 22:11:00,51.0,40.8,30.20,NW,315,18.0,24.0,68,0.00,,,-99.99,Weather View 32 v60,2013-04-21 05:11:00,
2013-04-20 22:21:00,51.0,40.8,30.20,NW,315,20.0,26.0,68,0.00,,,-99.99,Weather View 32 v60,2013-04-21 05:21:00,
2013-04-20 22:31:00,50.0,40.6,30.20,NW,315,13.0,27.0,70,0.00,,,-99.99,Weather View 32 v60,2013-04-21 05:31:00,
2013-04-20 22:41:00,50.0,40.6,30.19,WNW,292,21.0,27.0,70,0.00,,,-99.99,Weather View 32 v60,2013-04-21 05:41:00,
2013-04-20 22:51:00,50.0,40.6,30.20,NW,315,14.0,27.0,70,0.00,,,-99.99,Weather View 32 v60,2013-04-21 05:51:00,
2013-04-20 23:01:00,50.0,41.3,30.20,NW,315,15.0,27.0,72,0.00,,,-99.99,Weather View 32 v60,2013-04-21 06:01:00,
2013-04-20 23:06:00,50.0,41.3,30.20,WNW,292,15.0,27.0,72,0.00,,,-99.99,Weather View 32 v60,2013-04-21 06:06:00,
2013-04-20 23:16:00,50.0,42.0,30.20,NW,315,13.0,27.0,74,0.00,,,-99.99,Weather View 32 v60,2013-04-21 06:16:00,
2013-04-20 23:21:00,50.0,42.0,30.20,WNW,292,13.0,27.0,74,0.00,,,-99.99,Weather View 32 v60,2013-04-21 06:21:00,
2013-04-20 23:26:00,50.0,42.4,30.20,WNW,292,15.0,27.0,75,0.00,,,-99.99,Weather View 32 v60,2013-04-21 06:26:00,
2013-04-20 23:32:00,49.0,41.4,30.19,WNW,292,19.0,27.0,75,0.00,,,-99.99,Weather View 32 v60,2013-04-21 06:32:00,
2013-04-20 23:41:00,49.0,41.4,30.19,WNW,292,21.0,27.0,75,0.00,,,-99.99,Weather View 32 v60,2013-04-21 06:41:00,
2013-04-20 23:46:00,49.0,41.4,30.19,NW,315,13.0,27.0,75,0.00,,,-99.99,Weather View 32 v60,2013-04-21 06:46:00,
2013-04-20 23:51:00,49.0,41.4,30.20,NW,315,13.0,27.0,75,0.00,,,-99.99,Weather View 32 v60,2013-04-21 06:51:00,